Tracking 25378 objects as of 22-Jan-2022
HD Live streaming from Space Station
objects crossing your sky now

STARLINK-2191

Track STARLINK-2191 now!
10-day predictions
STARLINK-2191 is classified as:


NORAD ID: 48565
Int'l Code: 2021-041N
Perigee: 553.4 km
Apogee: 555.9 km
Inclination: 53.1 °
Period: 95.6 minutes
Semi major axis: 6925 km
RCS: Unknown
Launch date: May 15, 2021
Source: United States (US)
Launch site: AIR FORCE EASTERN TEST RANGE (AFETR)
aabbcc
Your satellite tracking list
Your tracking list is empty




NASA's NSSDC Master Catalog

Two Line Element Set (TLE):
1 48565U 21041N   22021.55823730  .00019849  00000-0  13510-2 0  9999
2 48565  53.0562  61.8982 0001847  76.3843 283.7352 15.06308077 37890
Source of the keplerian elements: AFSPC